TimeCST,TemperatureF,Dew PointF,Humidity,Sea Level PressureIn,VisibilityMPH,Wind Direction,Wind SpeedMPH,Gust SpeedMPH,PrecipitationIn,Events,Conditions,WindDirDegrees,DateUTC
12:55 AM,21.0,12.9,71,30.18,10.0,Calm,Calm,-,N/A,,Clear,0,2013-11-08 06:55:00
1:55 AM,19.9,12.9,74,30.18,10.0,Calm,Calm,-,N/A,,Clear,0,2013-11-08 07:55:00
2:55 AM,19.0,12.9,77,30.19,10.0,Calm,Calm,-,N/A,,Clear,0,2013-11-08 08:55:00
3:55 AM,19.0,14.0,81,30.18,10.0,Calm,Calm,-,N/A,,Clear,0,2013-11-08 09:55:00
4:55 AM,19.0,12.9,77,30.19,10.0,Calm,Calm,-,N/A,,Partly Cloudy,0,2013-11-08 10:55:00
5:55 AM,18.0,12.9,81,30.18,10.0,WSW,4.6,-,N/A,,Partly Cloudy,240,2013-11-08 11:55:00
6:55 AM,21.0,16.0,81,30.17,6.0,Calm,Calm,-,N/A,,Haze,0,2013-11-08 12:55:00
7:55 AM,21.9,18.0,85,30.16,7.0,South,3.5,-,N/A,,Clear,170,2013-11-08 13:55:00
8:55 AM,28.9,23.0,78,30.14,7.0,SSE,4.6,-,N/A,,Partly Cloudy,160,2013-11-08 14:55:00
9:55 AM,33.1,24.1,70,30.12,8.0,South,10.4,-,N/A,,Partly Cloudy,180,2013-11-08 15:55:00
10:55 AM,33.1,23.0,66,30.10,9.0,South,8.1,-,N/A,,Mostly Cloudy,180,2013-11-08 16:55:00
11:55 AM,34.0,24.1,67,30.05,7.0,SE,11.5,-,N/A,,Mostly Cloudy,130,2013-11-08 17:55:00
12:55 PM,34.0,25.0,70,30.02,7.0,SE,11.5,-,N/A,,Overcast,130,2013-11-08 18:55:00
1:55 PM,35.1,26.1,70,29.98,8.0,ESE,12.7,-,N/A,,Overcast,120,2013-11-08 19:55:00
2:55 PM,36.0,26.1,67,29.94,1.5,ESE,13.8,-,0.00,Snow,Light Snow,110,2013-11-08 20:55:00
3:03 PM,35.6,26.6,70,29.87,0.8,ESE,13.8,19.6,0.00,Snow,Light Snow,110,2013-11-08 21:03:00
3:42 PM,33.8,30.2,87,29.85,0.8,SE,13.8,-,0.01,Snow,Light Snow,130,2013-11-08 21:42:00
3:48 PM,33.8,30.2,87,29.85,1.0,SSE,10.4,-,0.01,Snow,Light Snow,150,2013-11-08 21:48:00
3:55 PM,33.1,30.0,89,29.92,1.0,SE,10.4,-,0.01,Snow,Light Snow,140,2013-11-08 21:55:00
4:02 PM,33.8,30.2,87,29.84,0.8,SE,12.7,-,0.01,Snow,Light Snow,140,2013-11-08 22:02:00
4:50 PM,33.8,30.2,87,29.80,0.5,East,13.8,-,0.03,Fog-Snow,Snow,100,2013-11-08 22:50:00
4:55 PM,33.1,30.9,92,29.86,0.5,East,12.7,21.9,0.03,Fog-Snow,Snow,100,2013-11-08 22:55:00
5:02 PM,33.8,30.2,87,29.77,1.0,East,16.1,-,0.00,Snow,Light Snow,100,2013-11-08 23:02:00
5:07 PM,33.8,30.2,87,29.77,3.0,East,16.1,24.2,0.00,,Overcast,100,2013-11-08 23:07:00
5:55 PM,34.0,30.0,85,29.84,7.0,ESE,19.6,25.3,0.01,Snow,Light Snow,110,2013-11-08 23:55:00
6:04 PM,33.8,30.2,87,29.77,5.0,ESE,17.3,-,0.00,Snow,Light Snow,110,2013-11-09 00:04:00
6:55 PM,35.1,30.0,82,29.79,10.0,East,17.3,27.6,0.00,,Overcast,100,2013-11-09 00:55:00
7:55 PM,36.0,28.9,76,29.75,9.0,East,15.0,-,0.00,Snow,Light Snow,100,2013-11-09 01:55:00
8:55 PM,36.0,28.9,76,29.72,5.0,ESE,16.1,-,0.00,Snow,Light Snow,110,2013-11-09 02:55:00
9:34 PM,35.6,28.4,75,29.64,4.0,ESE,15.0,-,0.00,Snow,Light Snow,110,2013-11-09 03:34:00
9:55 PM,36.0,30.0,79,29.68,6.0,ESE,13.8,-,0.00,Snow,Light Snow,120,2013-11-09 03:55:00
10:55 PM,36.0,30.9,82,29.65,5.0,ESE,12.7,-,0.00,Snow,Light Snow,120,2013-11-09 04:55:00
11:15 PM,35.6,30.2,81,29.59,2.5,ESE,11.5,-,0.01,Snow,Light Snow,120,2013-11-09 05:15:00
11:28 PM,35.6,32.0,87,29.59,1.8,ESE,10.4,-,0.01,Snow,Light Snow,120,2013-11-09 05:28:00
11:52 PM,33.8,32.0,93,29.58,1.5,ESE,8.1,-,0.03,Snow,Light Snow,120,2013-11-09 05:52:00
11:55 PM,34.0,32.0,92,29.63,1.5,ESE,9.2,-,0.03,Snow,Light Snow,120,2013-11-09 05:55:00